Tracking 35334 objects as of 12-Sep-2026
HD Live streaming from Space Station
objects crossing your sky now

FLOCK 3S 1


FLOCK 3S 1 is no longer on orbit
FLOCK 3S 1 is classified as:


NORAD ID: 43769
Int'l Code: 2018-099M
Launch date: December 3, 2018
Source: United States (US)
Launch site: AIR FORCE WESTERN TEST RANGE (AFWTR)
Decay date: 2025-06-19
Your satellite tracking list
Your tracking list is empty




NASA's NSSDC Master Catalog

Two Line Element Set (TLE):
1 43769U 18099M   25166.04943847  .12747532  25575-5  43891-3 0  9993
2 43769  97.4056 235.2593 0017578 255.5499 104.3851 16.42650578358404
Source of the keplerian elements: AFSPC